This is the latest recevied weather packets stored in our database for station/object K5KVN. If no packets are shown the sender has not sent any weather packets the latest 10 day(s).
| Time | Temp. | Humidity | Pressure | Rain* | Wind** | Luminosity | Snow |
|---|---|---|---|---|---|---|---|
| 1787500458 | 28.89° C | 65% | 1020.8 hPa | 0 mm | - | - | - |
| 1787499798 | 28.33° C | 66% | 1020.7 hPa | 0 mm | - | - | - |
| 1787499199 | 28.33° C | 66% | 1020.7 hPa | 0 mm | - | - | - |
| 1787498597 | 27.78° C | 67% | 1020.6 hPa | 0 mm | - | - | - |
| 1787497999 | 27.78° C | 68% | 1020.3 hPa | 0 mm | - | - | - |
| 1787497395 | 26.67° C | 70% | 1020.3 hPa | 0 mm | - | - | - |
| 1787496798 | 26.11° C | 72% | 1020.5 hPa | 0 mm | - | - | - |
| 1787496252 | 25.56° C | 74% | 1020.3 hPa | 0 mm | - | - | - |
| 1787495592 | 25.56° C | 73% | 1020.5 hPa | 0 mm | - | - | - |
| 1787495052 | 25° C | 74% | 1020.2 hPa | 0 mm | - | - | - |
| 1787494392 | 24.44° C | 77% | 1020.1 hPa | 0 mm | - | - | - |
| 1787493790 | 24.44° C | 77% | 1020 hPa | 0 mm | - | - | - |
| 1787493189 | 23.89° C | 79% | 1020.2 hPa | 0 mm | - | - | - |
| 1787492589 | 23.33° C | 82% | 1020.1 hPa | 0 mm | - | - | - |
| 1787491989 | 22.78° C | 84% | 1020.2 hPa | 0 mm | - | - | - |
| 1787491385 | 22.22° C | 87% | 1020.3 hPa | 0 mm | - | - | - |
| 1787490783 | 21.67° C | 90% | 1020.2 hPa | 0 mm | - | - | - |
| 1787490245 | 20.56° C | 93% | 1020.3 hPa | 0 mm | - | - | - |
| 1787489585 | 20.56° C | 94% | 1020.3 hPa | 0 mm | - | - | - |
| 1787488984 | 20° C | 95% | 1020.1 hPa | 0 mm | - | - | - |
| 1787488384 | 20° C | 95% | 1020.1 hPa | 0 mm | - | - | - |
| 1787487785 | 20° C | 95% | 1020 hPa | 0 mm | - | - | - |
| 1787487183 | 19.44° C | 96% | 1019.8 hPa | 0 mm | - | - | - |
| 1787486583 | 19.44° C | 96% | 1019.7 hPa | 0 mm | - | - | - |
| 1787485983 | 19.44° C | 96% | 1019.6 hPa | 0 mm | - | - | - |
* Rain latest hour (hover to see other rain measurements)
** Current wind speed in m/s (hover to see current wind gust speed)